GFSGL_sfc_dewp_000.txt.gz
Dewpoint
50 52 54 53 54 56 57 58 59 59 59 60 60 61 62 63 63 66 65 63 63 63 63 61 61 62 61 60 57 57 54 52 52 50 51 57 56 53 52 54 55 50 50
48 50 53 52 54 55 56 57 59 60 60 60 61 61 61 61 62 62 63 62 62 63 63 62 60 61 62 61 57 60 55 56 52 52 52 54 56 58 57 59 53 51 51
43 47 53 53 54 55 57 58 56 59 59 60 60 61 61 61 61 61 62 61 62 61 62 62 62 62 61 58 57 53 51 48 52 48 49 50 54 55 57 56 56 54 49
43 44 50 54 54 55 56 56 54 53 55 57 58 58 60 59 56 58 61 62 61 61 61 61 60 60 60 60 56 53 51 50 50 48 49 50 51 54 54 51 51 50 46
43 44 48 53 52 53 54 55 56 54 51 50 52 52 54 53 52 57 57 58 59 58 59 58 59 57 54 55 46 54 57 50 49 47 47 48 49 50 52 51 50 50 51
45 45 45 47 49 52 54 56 56 54 52 51 50 50 52 47 45 49 55 55 55 56 56 55 54 52 51 50 51 51 55 57 55 48 47 49 54 53 52 51 51 49 47
45 46 45 44 47 51 51 52 55 57 57 54 52 51 54 52 42 44 49 57 57 58 58 57 50 48 53 52 47 47 47 47 50 58 57 54 54 57 57 56 55 52 50
45 45 44 41 43 48 50 52 57 59 58 57 55 54 54 49 41 41 47 56 56 56 56 56 54 55 53 52 51 51 51 52 55 51 58 58 58 58 59 57 57 56 54
42 44 44 40 42 47 48 53 56 58 58 57 55 55 54 52 40 38 44 51 51 51 48 49 49 48 41 42 45 48 49 50 34 39 39 37 36 37 45 51 47 47 45
40 42 43 41 43 46 50 54 56 55 54 48 51 54 51 53 40 38 42 35 47 40 44 44 36 39 37 38 49 49 47 48 46 41 46 43 40 44 39 50 43 40 40
40 41 44 45 45 49 53 55 55 54 50 52 50 53 52 51 52 38 37 38 35 32 30 34 28 34 37 35 37 48 47 46 43 43 42 42 42 44 42 43 46 41 35
41 40 45 49 43 46 54 55 54 53 52 52 51 49 47 51 47 40 37 37 44 40 39 38 41 32 34 36 34 35 35 33 38 39 39 39 38 38 40 41 47 47 43
43 44 47 49 46 47 53 53 50 53 45 45 43 42 41 44 47 42 39 37 38 48 47 45 40 36 34 33 35 36 34 39 40 41 42 42 42 43 47 47 49 47 47
45 46 48 50 49 47 47 49 45 46 44 41 39 40 40 40 42 45 44 44 41 43 44 46 44 42 41 42 43 41 41 43 44 45 45 44 44 45 45 43 43 42 42
48 48 49 48 51 47 47 45 43 50 43 41 41 39 41 41 40 40 41 43 45 43 45 47 46 45 44 44 45 45 46 47 47 48 48 49 48 45 43 43 42 42 41
52 48 47 45 48 45 43 42 40 40 40 39 40 41 40 39 39 38 38 38 38 37 42 43 44 45 43 45 48 51 52 49 51 47 45 42 39 38 39 38 37 37 37
54 51 45 44 44 42 42 40 41 43 40 40 39 38 39 42 38 38 37 36 35 37 43 47 45 45 47 51 52 52 49 45 43 40 38 39 41 39 36 36 35 35 35
55 44 46 45 42 42 41 40 38 37 40 42 41 41 38 38 37 36 36 37 39 40 45 45 47 50 51 50 46 40 39 38 37 38 39 40 38 38 37 36 34 36 36
50 46 47 43 42 42 41 42 38 37 37 34 48 43 39 37 36 36 36 45 46 46 45 49 51 50 45 41 40 40 39 41 41 42 43 41 39 38 36 35 35 34 34
49 45 45 44 43 43 42 41 41 41 40 40 48 49 45 44 47 48 51 52 52 52 51 47 43 39 38 37 39 43 44 44 45 41 37 36 36 36 36 37 36 36 36
47 48 43 47 43 44 44 43 43 42 42 42 43 49 42 50 51 52 52 52 48 44 38 35 36 42 46 45 44 44 40 36 35 35 35 36 38 37 39 40 39 38 38
47 47 47 45 45 45 45 46 44 44 43 46 51 49 38 50 48 44 42 39 40 42 45 44 43 43 41 39 37 34 33 34 35 36 35 36 37 38 38 38 36 36 36
47 47 47 49 50 47 50 48 45 45 50 50 49 47 44 44 43 44 45 46 45 45 42 38 36 36 36 36 36 35 34 35 36 36 35 35 35 36 35 38 34 35 36
45 47 47 48 46 47 49 49 50 47 49 47 46 46 47 47 47 47 44 41 38 38 38 39 37 36 37 36 36 35 36 37 36 35 35 33 31 33 33 33 33 34 36
44 48 48 49 50 49 51 52 51 48 47 48 48 47 47 44 39 37 38 41 42 40 36 34 34 36 36 36 36 36 33 32 34 32 32 32 32 33 30 32 33 35 35
49 52 52 52 52 52 52 51 50 50 49 47 45 40 37 38 39 40 39 38 35 34 33 33 34 35 35 35 36 32 32 32 36 32 36 31 29 28 28 30 29 31 31

GFSGL_sfc_dewp_003.txt.gz
Dewpoint
51 53 54 56 57 58 60 61 60 62 62 62 62 62 63 64 65 66 66 64 63 63 63 61 61 60 60 60 60 61 59 60 55 58 57 61 63 62 59 60 57 54 50
49 51 52 55 57 59 60 61 62 62 61 62 62 61 61 62 65 64 62 63 62 62 61 62 61 61 60 60 58 61 63 60 56 57 58 58 59 61 59 61 56 49 51
44 50 52 55 56 59 59 59 61 62 62 61 61 61 61 61 62 63 63 63 63 63 63 61 62 61 60 60 60 59 61 60 59 54 54 56 55 57 58 60 60 62 53
42 47 52 54 56 58 56 57 58 59 62 62 62 61 59 58 60 61 62 64 63 63 62 62 63 61 62 63 61 59 59 59 60 54 52 53 54 58 57 55 54 54 53
40 44 52 53 54 57 55 55 56 56 56 57 59 59 57 56 58 61 61 63 63 63 63 62 63 60 57 58 56 60 61 56 52 51 48 49 50 53 54 54 53 54 57
41 42 48 50 50 54 56 56 55 52 52 52 53 53 57 50 46 51 58 60 60 60 58 58 58 55 53 51 51 51 58 62 60 50 48 51 59 57 55 52 52 52 50
42 41 42 48 48 51 52 52 53 56 56 54 53 54 55 53 44 46 53 59 59 61 61 59 50 49 52 55 51 49 50 49 51 60 60 58 60 61 61 61 60 57 54
42 41 39 42 47 50 51 53 58 59 58 56 53 53 54 45 41 44 49 61 61 60 58 57 59 56 54 52 51 51 53 54 57 52 59 61 61 63 63 62 63 62 58
40 41 39 38 44 48 50 56 59 59 60 56 54 53 53 51 40 39 44 57 56 55 53 54 55 54 45 45 51 52 52 53 37 41 41 39 37 37 44 54 51 51 50
39 41 40 38 43 47 53 58 59 58 57 52 53 54 51 53 38 38 42 42 52 47 50 50 42 46 39 40 54 55 53 54 46 44 49 49 42 48 40 49 48 43 44
38 40 41 42 47 53 58 60 59 56 55 56 52 54 53 53 49 37 37 46 39 37 35 37 39 39 36 36 37 54 50 49 48 49 47 47 50 52 47 50 52 44 40
38 39 42 46 43 47 58 58 56 58 57 56 55 52 50 53 49 38 36 36 43 42 41 37 40 37 36 36 35 36 36 37 39 41 42 44 44 44 47 50 54 52 50
40 43 45 47 43 49 55 57 51 57 49 50 47 46 43 47 52 41 37 35 38 48 46 41 34 34 34 33 34 36 35 39 41 42 44 47 48 50 54 53 55 54 50
43 47 49 49 47 51 49 51 48 49 46 43 41 42 40 42 45 48 44 42 38 43 45 45 43 40 38 41 42 36 37 41 43 47 49 50 50 51 50 47 48 47 47
50 48 50 47 51 50 50 47 45 52 45 42 43 40 43 43 42 44 41 43 44 43 47 47 46 45 43 45 45 45 47 47 48 53 53 51 47 45 43 43 42 43 43
52 47 45 44 47 42 44 45 41 41 39 39 40 41 40 39 38 38 38 38 38 38 42 46 46 46 46 45 45 47 50 51 52 49 45 43 40 39 40 41 42 41 39
53 51 45 43 44 42 41 41 42 43 41 40 38 39 40 38 37 37 37 37 36 38 42 43 44 45 46 45 49 52 48 44 43 40 39 39 42 43 40 38 37 34 34
55 43 47 46 42 42 42 40 37 39 41 44 40 42 38 37 36 36 36 37 38 38 41 42 45 47 50 51 50 43 41 41 41 43 45 46 45 42 38 33 32 34 34
53 47 47 45 43 42 42 41 37 37 38 39 43 41 38 36 36 36 36 39 38 41 42 44 47 51 50 45 44 42 42 45 47 47 47 39 36 34 33 33 33 33 34
52 47 45 46 43 42 41 39 39 40 40 39 41 41 42 40 40 41 41 41 44 45 45 51 50 47 45 42 43 46 47 47 42 36 34 35 35 35 35 35 35 34 34
47 49 47 46 44 42 42 42 42 41 39 38 43 43 39 42 42 43 43 47 50 52 50 46 41 40 45 48 46 43 39 34 34 34 34 35 37 36 37 36 35 34 33
47 47 49 48 47 44 44 43 45 44 43 40 47 43 36 46 47 50 51 52 50 44 43 46 45 44 41 41 39 36 33 33 34 35 34 34 36 36 35 36 33 34 33
47 47 48 50 49 47 47 44 45 46 46 49 50 47 47 49 51 47 44 45 45 46 46 43 39 36 37 38 37 34 32 34 36 36 34 34 32 34 33 38 33 33 33
46 47 47 48 49 47 48 50 49 44 47 52 52 50 49 47 45 45 46 46 44 41 37 36 36 38 38 36 36 36 37 37 34 34 34 32 31 32 31 30 31 31 35
46 48 49 49 49 50 51 50 53 48 51 51 50 47 46 47 48 47 43 39 39 38 37 36 37 36 35 34 35 35 33 33 35 33 34 32 30 30 27 29 29 33 32
45 48 49 49 50 49 49 50 51 52 49 50 49 50 48 47 43 40 40 39 36 36 36 36 36 36 35 36 35 33 33 33 36 33 36 32 27 26 25 24 23 26 25

GFSGL_sfc_dewp_006.txt.gz
Dewpoint
58 59 61 62 62 63 63 63 61 63 63 62 62 63 63 64 63 64 63 63 62 62 62 60 61 61 62 61 62 61 61 60 57 59 60 62 62 62 59 61 60 55 54
55 57 60 62 62 63 63 63 61 62 63 62 62 62 63 64 65 63 62 62 62 61 61 60 60 61 60 61 61 60 60 60 58 57 58 60 60 61 58 60 57 52 51
51 55 59 62 62 63 63 63 62 62 62 62 62 62 62 63 63 62 63 63 62 62 61 60 60 60 60 60 60 60 61 62 59 57 58 58 58 58 56 58 60 59 54
49 54 58 62 62 62 62 63 63 63 62 62 62 61 62 62 63 63 63 63 63 62 62 61 60 60 60 60 60 59 60 60 58 56 57 56 56 59 57 58 57 58 56
47 53 58 61 62 61 61 61 62 62 63 62 62 61 61 63 63 63 63 63 63 62 62 62 61 60 59 60 60 60 60 59 58 55 54 55 56 57 56 57 56 56 56
48 50 54 55 58 61 62 60 60 60 60 60 57 58 58 54 49 56 61 63 62 62 62 61 59 56 54 52 54 54 58 56 55 54 54 53 54 57 57 56 56 55 54
46 47 51 53 54 59 58 59 59 61 62 59 58 58 57 52 46 49 55 61 61 61 60 57 55 54 57 54 50 50 50 50 55 61 56 57 58 58 58 58 56 56 56
44 43 47 48 51 55 57 59 61 61 62 61 59 58 55 44 44 46 55 62 62 61 60 58 56 58 56 57 57 56 56 56 58 57 59 60 58 57 61 60 60 59 59
42 43 42 46 51 53 56 60 62 63 62 61 59 58 54 51 40 41 54 59 60 58 58 58 60 57 45 45 55 55 55 52 42 42 40 38 36 37 43 55 55 54 53
41 43 41 42 51 54 59 61 62 63 62 58 59 59 54 53 39 37 44 57 58 56 56 49 45 53 41 42 56 56 55 55 47 43 47 45 40 45 38 47 49 46 45
42 43 44 46 53 57 61 62 62 62 60 61 59 60 59 56 47 37 36 51 54 51 51 51 45 41 38 36 44 56 50 47 47 51 51 54 56 56 52 51 51 48 46
42 42 46 52 46 54 60 60 60 61 62 60 60 58 58 58 48 38 36 37 40 52 46 47 45 38 36 34 40 37 36 44 47 49 50 51 53 53 52 54 55 54 52
45 47 50 51 49 55 58 59 57 60 57 54 55 54 54 55 51 41 36 35 43 51 48 45 38 37 37 34 35 37 37 45 47 48 50 54 53 53 50 51 51 48 47
48 51 52 50 51 54 54 56 54 54 54 52 50 50 51 52 54 49 44 41 39 46 41 36 34 36 37 42 38 34 38 45 47 51 52 50 49 47 46 45 45 45 43
51 51 52 51 51 54 54 54 53 55 51 51 50 48 50 49 50 48 44 46 51 50 54 50 50 49 46 47 49 50 49 48 49 53 49 46 42 42 42 44 42 42 42
52 50 49 49 49 51 51 53 43 44 43 39 40 47 48 44 41 40 40 40 40 39 48 51 51 50 49 48 49 49 53 51 50 45 43 41 41 41 40 41 42 43 42
53 51 47 47 49 47 49 49 49 46 40 39 39 39 40 41 39 38 38 38 38 39 46 48 51 51 51 52 53 51 45 44 44 42 43 43 42 42 41 41 38 36 36
54 45 48 46 48 46 47 47 47 46 47 47 42 43 38 37 37 37 36 39 41 42 46 47 49 52 53 48 45 43 43 44 45 45 44 44 44 42 38 37 37 38 38
51 49 49 48 46 47 45 45 43 45 44 46 47 42 37 36 36 36 37 44 42 42 42 45 50 51 47 46 44 44 45 45 46 45 45 42 39 39 38 38 37 34 35
52 46 46 48 47 47 46 44 42 41 45 43 46 45 43 41 42 42 44 47 44 42 41 49 49 47 45 44 46 45 45 46 45 42 40 40 41 40 38 38 37 36 36
50 51 45 49 47 46 45 45 44 43 41 42 43 44 39 42 42 42 42 43 44 45 52 49 44 46 47 47 43 44 41 38 38 38 39 40 41 39 39 39 37 36 35
50 51 49 47 49 48 48 49 46 43 43 41 42 42 36 40 41 41 42 43 49 51 47 45 46 46 45 41 41 37 36 37 39 39 39 38 40 38 38 37 36 36 36
49 50 51 50 50 46 49 48 45 47 45 46 45 41 40 40 41 45 48 47 48 48 48 46 42 40 39 38 38 37 36 37 39 39 37 37 37 35 36 38 35 35 35
49 50 50 52 51 50 51 50 50 44 50 50 47 44 42 49 48 46 45 47 48 46 42 40 39 38 38 38 39 39 37 38 39 39 40 36 35 34 36 34 32 32 35
49 55 53 55 52 52 51 52 56 54 53 51 49 47 49 45 46 47 47 46 42 39 39 38 37 38 38 37 36 35 33 33 36 34 40 37 33 33 29 29 30 34 31
49 51 54 53 55 55 55 55 55 55 53 52 51 49 47 47 47 45 41 39 38 37 37 37 37 37 36 35 35 33 32 32 33 32 37 37 31 27 24 26 25 26 26

GFSGL_sfc_dewp_009.txt.gz
Dewpoint
53 53 58 59 60 61 61 59 60 59 61 61 62 62 61 62 62 61 62 60 60 60 60 60 60 61 61 61 61 61 60 60 58 59 61 62 62 62 61 60 60 58 57
53 53 58 59 60 61 62 60 60 60 61 61 62 62 62 61 61 61 61 61 60 59 60 59 60 61 61 61 61 60 60 60 59 58 60 61 60 60 59 59 58 56 54
53 51 58 58 60 60 61 59 61 60 60 61 61 61 62 62 61 61 61 60 60 60 59 60 60 60 60 60 60 60 60 62 60 59 58 58 57 57 56 57 57 54 53
51 50 57 57 58 59 60 61 61 61 60 60 61 61 62 62 62 62 62 61 61 60 60 60 60 60 60 60 60 60 60 59 58 58 57 56 54 55 53 53 55 57 54
52 51 56 57 57 58 60 60 61 61 61 60 60 62 63 63 63 62 62 62 61 61 61 61 61 61 60 60 61 60 59 58 56 56 55 54 54 55 52 54 55 55 54
52 51 54 54 58 58 57 59 59 59 60 57 56 56 58 59 54 56 61 62 61 61 60 61 60 59 58 56 56 56 57 56 54 54 53 53 53 54 54 55 55 53 52
52 52 52 53 58 56 55 55 55 58 56 56 55 53 54 53 51 53 57 62 62 61 59 59 59 58 56 57 51 50 51 51 53 53 52 52 52 54 54 53 53 53 53
48 50 51 52 56 55 55 54 55 57 55 54 53 50 45 43 48 51 53 61 60 59 58 57 56 55 55 52 52 53 53 55 54 58 55 55 55 56 56 57 55 54 54
44 46 49 49 53 55 55 54 56 55 56 54 51 48 45 40 45 50 57 58 57 57 56 54 56 53 48 49 53 52 52 47 42 43 43 41 39 43 49 52 51 47 45
42 42 47 49 51 53 56 56 57 56 56 55 53 48 46 40 38 44 53 56 54 50 47 51 49 47 43 47 51 51 50 48 43 42 43 39 36 39 41 43 47 40 41
42 41 42 49 51 53 58 58 57 58 56 55 54 52 48 41 37 37 42 53 51 50 47 44 47 41 42 45 50 53 50 49 46 45 50 50 52 52 47 49 46 44 44
42 42 41 49 50 56 57 58 58 57 56 56 54 54 54 46 41 36 38 41 42 47 47 44 40 38 40 38 38 36 40 42 43 44 47 50 50 51 52 50 46 45 47
42 44 44 48 49 57 56 57 56 56 57 54 55 53 55 52 43 38 36 42 43 48 44 44 37 37 38 36 36 36 40 41 43 48 50 48 47 45 45 45 45 45 42
44 47 47 45 52 55 56 56 55 55 54 51 52 51 52 53 46 37 36 41 40 39 41 38 36 35 35 35 27 24 31 41 45 49 46 45 44 42 42 43 40 41 41
47 49 45 44 52 53 54 55 54 54 52 52 50 50 50 52 51 40 37 41 45 42 38 35 32 24 26 37 44 38 41 44 47 45 42 40 40 39 39 41 41 41 40
49 49 46 44 52 51 53 53 43 45 45 45 45 48 48 47 44 40 39 40 42 43 46 45 44 42 38 41 43 47 50 47 42 40 40 40 40 39 38 39 39 37 35
48 48 47 44 50 50 51 52 50 43 40 39 40 40 44 42 42 39 38 39 39 40 45 48 47 47 47 47 49 45 42 42 42 42 42 44 41 40 39 36 36 36 36
51 45 48 47 45 49 49 50 50 47 44 43 39 39 38 39 40 38 37 38 40 40 42 44 45 49 51 47 44 42 42 43 44 44 43 43 41 37 36 36 36 35 35
50 48 46 47 47 45 48 48 49 47 45 45 42 38 36 36 37 37 37 38 38 40 44 43 47 49 45 43 43 42 43 43 43 45 42 39 39 38 38 36 35 33 33
48 45 45 46 47 46 45 46 46 46 46 45 43 41 38 38 39 39 40 43 41 41 42 46 47 45 44 44 43 42 41 42 41 38 39 39 39 38 37 36 35 34 34
49 47 44 48 45 47 47 45 45 43 44 44 46 42 36 39 40 40 40 44 42 42 46 47 43 43 44 43 40 41 41 38 38 38 39 38 37 36 37 36 35 35 34
50 49 48 47 49 49 49 50 47 44 42 44 45 43 34 39 40 40 40 41 45 50 46 45 45 45 42 40 40 37 35 36 39 39 38 38 36 36 37 35 35 34 33
52 50 49 47 47 44 49 50 52 49 45 44 44 46 40 40 42 42 42 46 49 47 47 46 44 40 40 39 36 36 36 37 37 37 36 38 35 35 36 34 32 31 32
51 52 50 48 47 49 49 53 49 47 47 47 45 44 45 42 42 44 48 47 46 47 46 44 42 39 37 37 38 38 38 38 38 38 37 36 34 33 31 29 31 31 29
50 53 53 51 50 49 51 53 53 51 50 47 45 43 43 45 46 47 47 47 45 42 40 38 38 38 37 36 35 35 33 33 36 36 38 34 30 28 26 28 28 27 25
51 51 52 54 53 52 52 54 55 52 50 48 47 47 47 46 47 47 46 40 39 39 38 38 38 38 37 36 33 32 32 32 33 33 36 29 25 23 23 24 23 23 23

GFSGL_sfc_dewp_015.txt.gz
Dewpoint
54 55 58 58 58 57 57 57 57 58 58 58 58 58 58 59 59 59 59 60 59 60 60 60 60 60 60 60 60 60 60 60 58 60 62 63 62 63 62 60 60 60 59
54 56 58 58 58 57 57 58 58 58 58 59 59 59 59 59 58 59 59 59 59 60 60 60 60 60 60 60 60 60 60 61 59 58 61 61 61 61 60 59 61 61 57
54 57 58 57 57 56 57 58 58 59 59 59 59 59 59 59 59 59 59 58 59 60 60 60 60 60 60 61 61 60 61 61 61 60 59 60 60 60 59 59 58 57 56
53 57 56 57 58 57 57 58 58 59 59 59 59 60 60 59 59 59 58 58 59 60 60 61 61 60 60 60 60 60 60 60 60 60 59 57 58 57 57 56 55 54 54
55 56 56 57 58 58 58 58 59 59 59 60 60 60 60 60 60 59 59 58 59 60 60 61 61 59 59 59 60 59 60 59 59 58 56 56 55 55 54 53 53 52 54
55 55 55 56 58 58 57 58 58 57 58 61 60 61 60 61 49 54 58 60 60 60 60 60 59 58 57 54 55 56 58 59 57 56 55 55 52 53 51 51 52 51 50
53 55 55 56 57 58 58 57 56 54 55 58 59 59 59 58 49 50 54 60 60 60 60 60 61 60 59 60 53 54 55 52 54 55 54 54 53 53 53 51 51 51 51
51 55 55 57 56 57 57 56 53 52 53 54 56 57 58 56 48 49 53 60 60 60 60 61 60 60 59 59 59 57 54 55 54 54 54 54 53 53 54 54 53 52 50
50 53 53 56 54 54 55 54 52 52 51 51 53 55 56 55 46 47 56 60 59 59 60 60 60 59 50 50 56 52 49 48 45 48 44 43 44 49 52 54 52 50 45
49 51 51 55 54 53 54 54 52 51 50 49 50 53 52 54 45 47 55 58 56 57 58 56 52 56 45 45 54 49 47 45 45 42 38 42 44 43 45 49 48 39 39
49 50 50 54 54 53 54 53 52 51 50 48 47 46 49 52 51 46 50 57 56 55 55 54 52 46 44 43 47 49 47 44 42 47 49 48 47 47 46 45 44 44 43
49 49 49 53 54 53 53 54 53 51 49 48 47 45 43 42 44 45 45 49 49 54 53 52 48 41 42 42 46 44 40 44 49 49 49 47 47 44 43 43 44 44 44
47 48 47 51 52 54 52 54 53 52 50 49 47 46 46 41 36 40 43 43 44 49 51 48 40 39 40 41 40 40 42 49 48 47 47 45 44 43 42 42 41 39 39
44 46 47 49 50 54 53 53 54 53 52 52 50 48 48 45 38 35 42 45 44 45 43 40 39 38 38 40 39 41 47 49 47 46 44 42 42 40 40 40 39 39 36
42 42 45 48 50 53 54 53 53 54 53 54 53 51 50 49 44 36 38 41 46 44 38 35 34 34 29 29 32 41 47 46 45 43 41 39 38 38 39 39 38 37 36
41 41 42 46 50 52 54 53 42 46 45 45 46 50 51 47 43 36 35 37 38 36 35 32 32 34 32 31 31 40 46 45 43 41 39 38 38 38 38 37 37 36 34
41 42 42 44 49 52 53 53 52 48 43 42 42 44 45 47 41 38 35 36 36 35 37 33 32 31 34 35 38 44 45 44 41 40 38 38 38 37 36 36 36 35 34
43 41 43 43 47 50 52 52 52 52 51 51 41 43 41 40 41 39 35 38 36 37 38 35 32 30 31 35 43 45 43 41 40 39 38 38 37 36 36 35 35 34 34
45 45 44 44 47 48 51 52 52 51 50 50 43 38 37 37 38 37 37 41 39 37 40 40 38 36 36 34 42 45 43 41 41 40 40 37 37 36 35 35 34 33 32
46 43 43 45 47 49 50 50 51 51 50 50 47 48 38 39 41 41 39 40 39 40 41 42 43 43 42 41 43 45 42 41 40 40 39 38 37 36 35 35 34 34 33
47 46 41 45 47 48 49 49 50 50 50 49 49 47 38 42 43 42 42 43 42 38 39 44 45 47 47 46 44 43 43 41 40 39 39 38 37 36 36 35 35 34 34
48 48 47 46 46 47 48 49 50 50 50 49 48 47 35 42 44 42 43 43 44 41 39 41 44 46 46 45 44 43 43 41 40 39 38 37 36 35 35 35 33 33 34
49 49 48 48 47 44 46 48 48 48 49 49 49 47 40 42 44 43 43 44 45 44 41 42 44 45 45 45 45 44 42 41 40 39 38 37 37 37 36 34 33 33 29
49 49 48 48 48 48 47 47 48 44 47 47 49 49 47 43 43 43 43 43 44 45 44 44 44 44 45 45 44 43 42 41 41 41 40 39 38 37 35 33 32 28 29
50 50 49 49 48 48 48 49 49 48 48 47 46 48 48 47 44 44 44 43 45 45 46 45 45 45 44 41 41 41 38 36 40 39 41 40 38 36 34 31 28 29 28
52 51 51 50 50 49 48 49 51 50 49 47 47 46 47 47 47 45 45 46 46 46 45 45 44 42 41 40 40 36 35 35 37 36 40 39 37 35 31 28 27 27 26